Ft. Stewart, GA

9:43 PM EDT on April 25, 2017 (GMT -0400)
Wright Army Air Field

Weather History for KLHW - August, 2013

Change the Weather History Date:

Monday, August 5, 2013

  Actual Average Record
Temperature  
Mean Temperature 81 °F -  
Max Temperature 88 °F 92 °F 100 °F (1972)
Min Temperature 75 °F 71 °F 65 °F (1985)
Cooling Degree Days 16    
Growing Degree Days 31 (Base 50)    
Moisture  
Dew Point 78 °F    
Average Humidity 92    
Maximum Humidity 100    
Minimum Humidity 79    
Precipitation  
Precipitation 0.00 in - - ()
Sea Level Pressure  
Sea Level Pressure 29.99 in    
Wind  
Wind Speed 3 mph (East)    
Max Wind Speed 16 mph    
Max Gust Speed 22 mph    
Visibility 6 miles    
Events Rain    
Averages and records for this station are not official NWS values.
T = Trace of Precipitation, MM = Missing Value Source: NWS Daily Summary

Daily Weather History Graph

Daily Weather History Graph

Search for Another Location

Airport or City:

Trip Planner

Search our weather history database for the weather conditions in past years. The results will help you decide how hot, cold, wet, or windy it might be!

Date:

Astronomy

Aug. 05, 2013 Rise Set
Actual Time 6:44 AM EDT 8:19 PM EDT
Civil Twilight 6:18 AM EDT 8:45 PM EDT
Nautical Twilight 5:46 AM EDT 9:17 PM EDT
Astronomical Twilight 5:13 AM EDT 9:50 PM EDT
Moon 5:37 AM EDT (8/5) 7:21 PM EDT (8/5)
Length of Visible Light 14h 27m
Length of Day
13h 34m
Waning Crescent, 1% of the Moon is Illuminated
Aug 5
Waning Crescent
Aug 6
New
Aug 14
First Quarter
Aug 20
Full
Aug 28
Last Quarter

Hourly Weather History & Observations

Time (EDT) Temp. Heat Index Dew Point Humidity Pressure Visibility Wind Dir Wind Speed Gust Speed Precip Events Conditions
12:58 AM 79.9 °F - 78.3 °F 95% 29.99 in 10.0 mi Calm Calm - N/A   Overcast
1:33 AM 78.8 °F - 78.8 °F 100% 29.97 in 8.0 mi NE 2.3 mph - N/A   Mostly Cloudy
1:43 AM 78.8 °F - 78.8 °F 100% 29.97 in 5.0 mi Calm Calm - N/A   Mostly Cloudy
1:58 AM 79.2 °F - 79.2 °F 100% 29.98 in 4.0 mi NNE 1.2 mph - N/A   Mostly Cloudy
2:58 AM 78.3 °F - 77.7 °F 98% 29.97 in 4.0 mi SSE 3.5 mph - N/A   Clear
3:58 AM 77.0 °F - 77.0 °F 100% 29.95 in 2.5 mi Calm Calm - N/A   Clear
4:08 AM 77.0 °F - 77.0 °F 100% 29.94 in 3.0 mi WSW 1.2 mph - N/A   Clear
4:33 AM 77.0 °F - 77.0 °F 100% 29.94 in 2.5 mi Calm Calm - N/A   Clear
4:48 AM 77.0 °F - 77.0 °F 100% 29.94 in 3.0 mi Calm Calm - N/A   Clear
4:58 AM 77.0 °F - 77.0 °F 100% 29.95 in 2.5 mi Calm Calm - N/A   Clear
5:03 AM 75.2 °F - 75.2 °F 100% 29.95 in 3.0 mi North 3.5 mph - N/A   Clear
5:18 AM 75.2 °F - 75.2 °F 100% 29.95 in 2.5 mi Calm Calm - N/A   Clear
5:23 AM 75.2 °F - 75.2 °F 100% 29.95 in 3.0 mi Calm Calm - N/A   Clear
5:38 AM 75.2 °F - 75.2 °F 100% 29.95 in 2.5 mi NE 2.3 mph - N/A   Clear
5:58 AM 75.4 °F - 75.4 °F 100% 29.97 in 2.5 mi Calm Calm - N/A   Clear
6:03 AM 75.2 °F - 75.2 °F 100% 29.96 in 3.0 mi Calm Calm - N/A   Clear
6:38 AM 75.2 °F - 75.2 °F 100% 29.97 in 2.5 mi Calm Calm - N/A   Clear
6:58 AM 75.2 °F - 75.2 °F 100% 29.98 in 1.8 mi Calm Calm - N/A   Partly Cloudy
7:13 AM 75.2 °F - 75.2 °F 100% 29.97 in 1.8 mi West 1.2 mph - N/A   Mostly Cloudy
7:28 AM 75.2 °F - 75.2 °F 100% 29.98 in 2.0 mi Calm Calm - N/A   Overcast
7:38 AM 75.2 °F - 75.2 °F 100% 29.98 in 3.0 mi North 1.2 mph - N/A   Mostly Cloudy
7:43 AM 77.0 °F - 77.0 °F 100% 29.98 in 3.0 mi Calm Calm - N/A   Scattered Clouds
7:53 AM 77.0 °F - 77.0 °F 100% 29.99 in 2.5 mi Calm Calm - N/A   Partly Cloudy
7:58 AM 76.5 °F - 76.5 °F 100% 30.00 in 2.5 mi Calm Calm - N/A   Clear
8:23 AM 78.8 °F - 78.8 °F 100% 29.99 in 3.0 mi Calm Calm - N/A   Scattered Clouds
8:53 AM 80.6 °F 89.3 °F 80.6 °F 100% 30.00 in 2.5 mi Calm Calm - N/A   Partly Cloudy
8:57 AM 80.6 °F 89.3 °F 80.6 °F 100% 30.00 in 7.0 mi Calm Calm - N/A   Partly Cloudy
8:58 AM 79.9 °F - 79.9 °F 100% 30.01 in 4.0 mi Calm Calm - N/A   Partly Cloudy
9:01 AM 80.6 °F 89.3 °F 80.6 °F 100% 30.00 in 6.0 mi NNE 1.2 mph - N/A   Partly Cloudy
9:11 AM 80.6 °F 89.3 °F 80.6 °F 100% 30.00 in 2.5 mi Calm Calm - N/A   Mostly Cloudy
9:16 AM 80.6 °F 88.1 °F 78.8 °F 94% 30.00 in 3.0 mi Calm Calm - N/A   Mostly Cloudy
9:18 AM 80.6 °F 88.1 °F 78.8 °F 94% 30.00 in 6.0 mi Calm Calm - N/A   Mostly Cloudy
9:26 AM 80.6 °F 89.3 °F 80.6 °F 100% 30.00 in 2.5 mi ESE 4.6 mph - N/A   Mostly Cloudy
9:31 AM 82.4 °F 94.0 °F 80.6 °F 94% 30.00 in 1.8 mi ESE 3.5 mph - N/A   Overcast
9:34 AM 82.4 °F 94.0 °F 80.6 °F 94% 30.00 in 6.0 mi ENE 2.3 mph - N/A   Scattered Clouds
9:36 AM 82.4 °F 94.0 °F 80.6 °F 94% 30.00 in 1.5 mi Variable 2.3 mph - N/A   Overcast
9:43 AM 82.4 °F 94.0 °F 80.6 °F 94% 30.00 in 6.0 mi Variable 2.3 mph - N/A   Overcast
9:46 AM 84.2 °F 98.3 °F 80.6 °F 89% 30.00 in 2.0 mi East 1.2 mph - N/A   Mostly Cloudy
9:51 AM 84.2 °F 98.3 °F 80.6 °F 89% 30.00 in 1.8 mi Variable 4.6 mph - N/A   Mostly Cloudy
9:54 AM 84.2 °F 98.3 °F 80.6 °F 89% 30.00 in 6.0 mi East 4.6 mph - N/A   Mostly Cloudy
9:55 AM 84.2 °F 98.3 °F 80.6 °F 89% 30.01 in 6.0 mi East 4.6 mph - N/A   Mostly Cloudy
9:56 AM 84.2 °F 98.3 °F 80.6 °F 89% 30.00 in 1.8 mi Variable 1.2 mph - N/A   Mostly Cloudy
10:04 AM 84.2 °F 98.3 °F 80.6 °F 89% 29.99 in 6.0 mi ENE 4.6 mph - N/A   Mostly Cloudy
10:06 AM 84.2 °F 98.3 °F 80.6 °F 89% 30.00 in 2.0 mi East 4.6 mph - N/A   Haze
10:11 AM 84.2 °F 98.3 °F 80.6 °F 89% 30.00 in 1.2 mi East 5.8 mph - N/A   Haze
10:16 AM 84.2 °F 98.3 °F 80.6 °F 89% 29.99 in 6.0 mi East 5.8 mph - N/A   Haze
10:17 AM 84.2 °F 98.3 °F 80.6 °F 89% 29.99 in 6.0 mi East 4.6 mph - N/A   Haze
10:41 AM 84.2 °F 98.3 °F 80.6 °F 89% 30.01 in 10.0 mi ENE 3.5 mph - N/A   Mostly Cloudy
10:56 AM 86.0 °F 101.9 °F 80.6 °F 84% 30.01 in 10.0 mi ENE 9.2 mph - N/A   Scattered Clouds
10:58 AM 86.4 °F 102.6 °F 80.6 °F 83% 30.02 in 10.0 mi ENE 6.9 mph - N/A   Scattered Clouds
11:18 AM 86.0 °F 101.9 °F 80.6 °F 84% 30.01 in 10.0 mi East 6.9 mph - N/A   Mostly Cloudy
11:53 AM 86.0 °F 101.9 °F 80.6 °F 84% 30.01 in 10.0 mi East 5.8 mph - N/A   Mostly Cloudy
11:58 AM 86.0 °F 101.9 °F 80.6 °F 84% 30.01 in 10.0 mi ENE 10.4 mph - N/A   Mostly Cloudy
12:08 PM 86.0 °F 99.3 °F 78.8 °F 79% 30.00 in 10.0 mi ENE 6.9 mph - N/A   Mostly Cloudy
12:23 PM 86.0 °F 101.9 °F 80.6 °F 84% 30.00 in 10.0 mi ESE 10.4 mph - N/A   Overcast
12:28 PM 87.8 °F 104.9 °F 80.6 °F 79% 30.00 in 10.0 mi ESE 9.2 mph - N/A   Overcast
12:58 PM 86.7 °F 101.5 °F 79.7 °F 79% 30.00 in 10.0 mi East 12.7 mph - N/A   Mostly Cloudy
1:08 PM 86.0 °F 99.3 °F 78.8 °F 79% 29.99 in 10.0 mi East 10.4 mph - N/A   Mostly Cloudy
1:38 PM 86.0 °F 99.3 °F 78.8 °F 79% 29.99 in 10.0 mi East 12.7 mph - N/A   Overcast
1:58 PM 85.1 °F 97.6 °F 78.6 °F 81% 29.99 in 10.0 mi East 11.5 mph - N/A   Overcast
2:53 PM 86.0 °F 101.9 °F 80.6 °F 84% 29.97 in 10.0 mi SE 15.0 mph 20.7 mph N/A   Mostly Cloudy
2:58 PM 86.2 °F 100.4 °F 79.5 °F 80% 29.98 in 10.0 mi ESE 16.1 mph 21.9 mph N/A   Mostly Cloudy
3:27 PM 84.2 °F 96.1 °F 78.8 °F 84% 29.97 in 10.0 mi ENE 12.7 mph 19.6 mph N/A Rain Light Rain
3:32 PM 84.2 °F 96.1 °F 78.8 °F 84% 29.96 in 9.0 mi East 12.7 mph 19.6 mph N/A Rain Light Rain
3:44 PM 82.4 °F 92.4 °F 78.8 °F 89% 29.97 in 10.0 mi ESE 6.9 mph - N/A   Overcast
3:49 PM 82.4 °F 92.4 °F 78.8 °F 89% 29.97 in 10.0 mi SE 6.9 mph - N/A   Overcast
3:58 PM 82.2 °F 92.2 °F 79.2 °F 90% 29.98 in 10.0 mi East 10.4 mph 17.3 mph 0.00 in   Overcast
4:03 PM 82.4 °F 92.4 °F 78.8 °F 89% 29.96 in 10.0 mi ESE 13.8 mph - N/A   Overcast
4:58 PM 86.0 °F 99.3 °F 78.8 °F 79% 29.98 in 10.0 mi East 9.2 mph 17.3 mph N/A   Mostly Cloudy
5:13 PM 84.2 °F 96.1 °F 78.8 °F 84% 29.97 in 10.0 mi East 10.4 mph - N/A   Mostly Cloudy
5:58 PM 83.1 °F 92.9 °F 77.9 °F 84% 29.97 in 10.0 mi ESE 8.1 mph - N/A   Partly Cloudy
6:58 PM 81.9 °F 89.5 °F 76.5 °F 84% 29.97 in 10.0 mi East 8.1 mph - N/A   Partly Cloudy
7:58 PM 80.2 °F 85.5 °F 75.4 °F 85% 29.99 in 10.0 mi East 5.8 mph - N/A   Scattered Clouds
8:58 PM 78.4 °F - 74.7 °F 88% 30.00 in 10.0 mi East 5.8 mph - N/A   Scattered Clouds
9:58 PM 77.9 °F - 74.5 °F 89% 30.02 in 10.0 mi Calm Calm - N/A   Overcast
10:58 PM 77.2 °F - 74.7 °F 92% 30.02 in 10.0 mi Calm Calm - N/A   Overcast
11:58 PM 77.4 °F - 75.2 °F 93% 30.01 in 10.0 mi Calm Calm - N/A   Mostly Cloudy